www.pogodaiklimat.ru

Погода и климат >> Архив погоды >> Россия >> Якутия >> Бердигестях


ПОГОДА в Бердигестяхе

  • Прогноз погоды в Бердигестяхе
  • Монитор погоды в Бердигестяхе

АРХИВ ПОГОДЫ в Бердигестяхе

Время (UTC), дата Ветер
(напр.,м/с)
 
Видим.   Явления Облачность Т
(С)
Тd
(С)
f
(%)
Тe
(С)
Тes
(С)
Комфортность P
(гПа)
Po
(гПа)
Тmin
(С)
Tmax
(С)
R
(мм)
R24
(мм)
S
(см)
18 14.09 В 1 20 км 6/5 1000 м
[Sc Ci fib]
+1.5 -5.9 58 0 0 1003.7 975.3
21 14.09 СВ 3 50 км 6/6 1000 м
[Sc]
+1.1 -7.3 53 -3 -3 1002.5 974.1
00 15.09 В 5 50 км 8/6 1000 м
[Sc Ac trans]
+6.2 -6.6 39 +3 +3 1000.8 973.0 -2.1
03 15.09 В 6-11
{12}
50 км 10/4 600 м
[Sc Cs]
+10.2 -6.1 31 +8 +9 999.9 972.5
06 15.09 ЮЗ 4
{12}
50 км 10/8 600 м
[Cb cap Cs]
+10.7 -3.8 36 +9 +9 999.9 972.5
09 15.09 З 2 20 км слаб. дождь 10/8 600 м
[St Cs]
+6.7 +2.1 72 +5 +5 1003.1 975.2
12 15.09 З 2 20 км {дождь} 10/8 600 м
[St Cs]
+2.2 +0.3 87 -1 -1 1005.5 977.1 +10.7 0.3
15 15.09 З 2 20 км 10/8 600 м
[St Cs]
+1.4 +0.3 92 -2 -2 1006.4 977.9
18 15.09 З 1 20 км 10/8 600 м
[St Cs]
+1.0 -0.1 92 -1 -1 1006.6 978.1
21 15.09 З 1 20 км слаб. дождь со снегом 10/8 300 м
[St Cs]
+0.1 -0.5 96 -2 -2 1006.9 978.3
00 16.09 С 2 50 км {снег} 10/6 600 м
[St Ac As]
+0.9 +0.4 96 -3 -3 1007.4 978.9 +0.1 2 1
03 16.09 СЗ 1 50 км 10/6 600 м
[St Ac As]
+2.0 +0.9 92 0 +1 1008.3 979.8
06 16.09 З 2 50 км 10/10 600 м
[St]
+3.6 +0.7 81 +1 +1 1008.7 980.3
09 16.09 СЗ 1 50 км 10/6 600 м
[St Ac As]
+4.2 +0.8 79 +3 +3 1008.9 980.6
12 16.09 штиль 0 20 км 9/0 2000 м
[Ac As Cs]
+1.0 -0.1 92 -0 -0 1009.6 981.0 +5.7
15 16.09 СЗ 1 20 км 9/0 2000 м
[Ac As Cs]
-0.6 -1.2 96 -3 -3 1009.6 980.8
18 16.09 З 1 20 км 10/0 2000 м
[Ac As]
+0.4 -1.0 90 -2 -2 1009.4 980.7
21 16.09 ЮЗ 2 20 км 10/0 2000 м
[Ac As]
+1.2 -2.0 79 -2 -2 1009.8 981.2
00 17.09 ЮЗ 2 50 км 10/0 2000 м
[Ac As]
+2.5 -1.7 74 -0 0 1009.7 981.2 -1.5
03 17.09 З 2 50 км 8/4 600 м
[Cu hum Ac trans]
+5.7 -1.3 61 +4 +5 1009.0 980.8
06 17.09 З 2 50 км 9/5 600 м
[Cu hum Ac trans]
+7.2 -1.4 54 +6 +6 1009.0 981.0
09 17.09 СЗ 3
{10}
50 км 9/5 600 м
[Cu Sc Ac trans]
+6.1 -2.1 56 +3 +3 1010.2 982.1
12 17.09 СЗ 2 20 км 10/6 600 м
[Sc Ac As]
+4.3 -1.5 66 +2 +2 1011.6 983.3 +7.2
15 17.09 ЮЗ 1 20 км 10/5 600 м
[Sc Ac As]
+2.3 -2.3 72 +1 +1 1011.9 983.3
18 17.09 З 1 20 км 10/4 600 м
[Sc Ac As]
+0.6 -3.0 77 -1 -1 1012.1 983.3
21 17.09 ЮЗ 1 20 км 10/8 600 м
[Sc Ac As]
-0.4 -3.5 80 -2 -2 1012.2 983.3
00 18.09 ЮЗ 1 50 км 9/6 1000 м
[Sc Ac trans]
+0.7 -2.9 77 -1 -1 1012.8 984.0 -0.4
03 18.09 ЮЗ 2 50 км 9/8 600 м
[Sc Ac trans]
+3.6 -1.7 68 +1 +2 1012.8 984.4
06 18.09 СЗ 3 50 км 10/8 600 м
[Sc Ac As]
+6.5 -2.6 52 +4 +4 1013.0 984.9
09 18.09 З 2 50 км 10/4 600 м
[Sc Ac As]
+4.9 -2.0 61 +3 +3 1014.7 986.3
12 18.09 СВ 2 20 км 10/0 2000 м
[Ac As]
+2.1 -0.1 85 -1 -1 1015.6 987.0 +6.5
15 18.09 СВ 1 20 км 10/4 600 м
[Sc Ac As]
+1.1 -0.6 88 -1 -1 1015.3 986.6
18 18.09 В 1 20 км 6/0
[Ci fib]
-0.6 -0.5 100 -3 -3 1015.2 986.2
21 18.09 В 1 20 км 3/0
[Ci fib]
-1.6 -2.4 94 -4 -4 1014.3 985.3
00 19.09 СВ 3 50 км 9/4 600 м
[Sc Cs]
+1.8 -1.3 80 -2 -2 1012.8 984.1 -1.6
03 19.09 ЮВ 4 50 км 9/5 600 м
[Sc Cs]
+5.7 -4.1 49 +2 +4 1010.3 982.1
06 19.09 В 5 50 км 10/4 600 м
[Sc Cs]
+6.2 -4.1 48 +3 +3 1008.9 980.8
09 19.09 СВ 5 20 км слаб. дождь 10/6 600 м
[St Ac As]
+4.8 +1.0 76 0 0 1008.6 980.4
12 19.09 С 3 4000 м слаб. дождь 10/8 300 м
[St Ac As]
+2.5 +1.5 93 -2 -2 1009.3 980.8 +6.8 3
15 19.09 СЗ 2 4000 м слаб. дождь 10/8 300 м
[St Ac As]
+1.0 +0.2 94 -3 -3 1009.6 981.0
18 19.09 СЗ 2 4000 м слаб. дождь со снегом 10/8 300 м
[St As op]
+0.2 -0.4 96 -4 -4 1010.6 981.9
21 19.09 СЗ 3 4000 м слаб. дождь со снегом 10/6 300 м
[St As op]
+0.2 -0.4 96 -5 -5 1012.6 983.8
00 20.09 З 2 50 км в посл. час дождь 10/6 300 м
[St Ac As]
+1.1 +0.6 96 -3 -2 1014.7 986.0 +0.1 15 3
03 20.09 ЮЗ 3 20 км слаб. дождь 10/8 600 м
[St Ac As]
+3.1 +1.8 91 -1 -1 1016.3 987.8
06 20.09 ЮЗ 3 50 км {дождь} 10/10 600 м
[St]
+2.5 +0.9 89 -2 -2 1016.9 988.3
09 20.09 Ю 3 50 км 10/10 600 м
[St]
+3.2 -0.6 76 -1 -1 1017.5 988.9
12 20.09 В 1 20 км 6/0
[Cs]
-1.4 -3.3 87 -4 -4 1018.2 989.0 +3.2 0.0
15 20.09 В 1 20 км 9/0 2000 м
[Ac trans]
-0.7 -2.5 88 -3 -3 1016.9 987.9
18 20.09 СВ 2 20 км 9/0 2000 м
[Ac trans]
+0.2 -2.2 84 -3 -3 1015.0 986.1
21 20.09 СВ 2 20 км 8/0
[Ac trans]
-0.6 -2.4 88 -4 -4 1014.2 985.3
00 21.09 В 1 50 км 8/0 2000 м
[Ac trans]
+1.2 -1.4 83 -1 0 1013.4 984.7 -1.5
03 21.09 штиль 0 50 км 1/0
[Ac trans]
+6.2 +0.3 66 +6 +11 1012.1 984.0
06 21.09 СЗ 1 50 км 8/8 600 м
[Sc]
+8.2 -1.5 50 +8 +9 1011.4 983.5
09 21.09 штиль 0 50 км 1/0
[Ac trans]
+7.6 +0.3 60 +7 +7 1011.7 983.7
12 21.09 СВ 1 20 км ясно +1.5 -3.3 70 0 0 1012.6 983.9 +8.7

 

Местоположение метеостанции Бердигестях (Якутия, Россия): широта 62.27 долгота 127.00 высота над уровнем моря 231 м.

В архиве по умолчанию представлена погода в Бердигестяхе за последнюю неделю. Архивные данные за месяц целиком и за предыдущие месяцы, начиная с января 2011 года, Вы можете получить, выбрав интересующий диапазон дат из раскрывающегося списка и нажав кнопку "Ввод!".


*Определитесь, кто Вы:
робот инопланетянин человек

Внимание! Время в таблицах - всемирное. Для получения местного времени необходимо прибавить поправку, которая равна 9 ч.

Смотрите также архив погоды в соседних городах и на ближайших метеорологических станциях:

Погода в Тонгулахе (Якутия, Россия) (136 км)
Погода в Якутске (Якутия, Россия) (138 км)
Погода в Покровске (Якутия, Россия) (141 км)
Погода в Намцах (Якутия, Россия) (143 км)
Погода в Батамае (Якутия, Россия) (185 км)
Погода в Исити (Якутия, Россия) (185 км)
Погода в Сангаре (Якутия, Россия) (188 км)
Погода в Хатырык-Хомо (Якутия, Россия) (217 км)
Погода в Сого-Хае (Якутия, Россия) (226 км)
Погода в Сеген-Кюеле (Якутия, Россия) (254 км)

Пояснения к столбцам:

Ветер - указаны скорость ветра в м/с - средняя за 10 мин, порывы в срок и между сроками (в фигурных скобках) и направление, откуда дует ветер: С - северный, СВ - северо-восточный, В - восточный, ЮВ - юго-восточный, Ю - южный, ЮЗ - юго-западный, З - западный, СЗ - северо-западный.
Видимость - горизонтальная дальность видимости в метрах или километрах. При видимости от 1 до 10 км при отсутствии осадков обычно наблюдается дымка, при ухудшении видимости до 1 км и менее - туман. В сухую погоду видимость может ухудшаться дымом, пылью или мглою.
Явления - указаны атмосферные явления, наблюдавшиеся в срок или в последний час перед сроком; фигурными скобками обозначены явления, наблюдавшиеся между сроками (за 1-3 часа до срока); квадратными скобками обозначены град или гололедные отложения с указанием их диаметра в мм.
Облачность - указаны через наклонную черту общая и нижняя облачность в баллах и высота нижней границы облаков в метрах; квадратными скобками обозначены формы облаков: Ci - перистые, Cs - перисто-слоистые, Cc - перисто-кучевые, Ac - высококучевые, As - высокослоистые, Sc - слоисто-кучевые, Ns - слоисто-дождевые, Cu - кучевые, Cb - кучево-дождевые. Подробнее классификацию облаков см. в Атласе облаков (PDF).
T - Температура воздуха - температура, измеренная на высоте 2 м над землей.
Td - Температура точки росы - температура, при понижении до которой содержащийся в воздухе водяной пар достигнет насыщения.
f - Относительная влажность воздуха - влажноcть воздуха, измеренная на высоте 2 м над землей.
Te - Эффективная температура - температура, которую ощущает одетый по сезону человек в тени. Характеристика душности погоды. При расчете учитывается влияние влажности воздуха и скорости ветра на теплоощущения человека.
Tes - Эффективная температура на солнце - температура, которую ощущает человек, с поправкой на солнечный нагрев. Характеристика знойности погоды. Зависит от высоты солнца над горизонтом, облачности и скорости ветра. Ночью, в пасмурную погоду, а также при ветре 12 м/с и более поправка равна нулю.
P - Атмосферное давление - приведенное к уровню моря атмосферное давление.
Po - Атмосферное давление - измеренное на уровне метеостанции атмосферное давление.
Tmin - Минимальная температура - минимум температуры воздуха на высоте 2 м над землей.
Tmax - Максимальная температура - максимум температуры воздуха на высоте 2 м над землей.
R - Количество осадков - Количество выпавших осадков за период времени, мм. При наведении курсора мыши на число - период времени, за который выпало указанное количество осадков.
R24 - Количество осадков - Количество выпавших осадков за 24 часа, мм.
S - Снежный покров - Высота снежного покрова, см. При наведении курсора мыши на число - состояние снежного покрова и степень покрытия местности в баллах.